This is the latest recevied weather packets stored in our database for station/object VE6EN. If no packets are shown the sender has not sent any weather packets the latest 10 day(s).
| Time | Temp. | Humidity | Pressure | Rain* | Wind** | Luminosity | Snow |
|---|---|---|---|---|---|---|---|
| 1787827799 | 15.56° C | 56% | 1012.5 hPa | 0 mm | - | - | - |
| 1787827199 | 16.11° C | 54% | 1012.5 hPa | 0 mm | - | - | - |
| 1787826599 | 16.11° C | 54% | 1012.6 hPa | 0 mm | - | - | - |
| 1787826004 | 16.11° C | 54% | 1012.7 hPa | 0 mm | - | - | - |
| 1787825404 | 16.11° C | 54% | 1012.8 hPa | 0 mm | - | - | - |
| 1787824806 | 16.67° C | 53% | 1013 hPa | 0 mm | - | - | - |
| 1787824210 | 16.67° C | 52% | 1013.1 hPa | 0 mm | - | - | - |
| 1787823603 | 17.22° C | 53% | 1013.2 hPa | 0 mm | - | - | - |
| 1787823008 | 17.22° C | 51% | 1013.3 hPa | 0 mm | - | - | - |
| 1787822403 | 17.22° C | 50% | 1013.3 hPa | 0 mm | - | - | - |
| 1787821805 | 17.78° C | 50% | 1013.4 hPa | 0 mm | - | - | - |
| 1787821202 | 17.78° C | 49% | 1013.3 hPa | 0 mm | - | - | - |
| 1787820603 | 18.33° C | 49% | 1013.4 hPa | 0 mm | - | - | - |
| 1787820004 | 18.33° C | 48% | 1013.4 hPa | 0 mm | - | - | - |
| 1787819404 | 18.33° C | 48% | 1013.5 hPa | 0 mm | - | - | - |
| 1787818800 | 18.89° C | 49% | 1013.6 hPa | 0 mm | - | - | - |
| 1787818208 | 18.89° C | 49% | 1013.8 hPa | 0 mm | - | - | - |
| 1787817607 | 18.89° C | 50% | 1013.8 hPa | 0 mm | - | - | - |
| 1787817009 | 19.44° C | 51% | 1014 hPa | 0 mm | - | - | - |
| 1787815804 | 19.44° C | 48% | 1014 hPa | 0 mm | - | - | - |
| 1787815204 | 19.44° C | 46% | 1014 hPa | 0 mm | - | - | - |
| 1787814603 | 20° C | 47% | 1014.1 hPa | 0 mm | - | - | - |
| 1787814011 | 20° C | 47% | 1014.1 hPa | 0 mm | - | - | - |
| 1787813403 | 20° C | 47% | 1014 hPa | 0 mm | - | - | - |
| 1787812803 | 20.56° C | 47% | 1014.1 hPa | 0 mm | - | - | - |
* Rain latest hour (hover to see other rain measurements)
** Current wind speed in m/s (hover to see current wind gust speed)